Location: Newark
(48.4472°N, 1.4892°E)
Time: 07:49:52
(UTC+00:00)

deb Explorer IX - Pass Details

Date: 19 November 2019
Orbit: 545 x 1105 km, 38.8° (Epoch: 05 December)

Event Time Altitude Azimuth Distance (km) Brightness Sun altitude
Exits shadow 04:06:43 22° 160° (SSE) 1,522 ? -29.6°
Drops below altitude 10° 04:09:03 10° 134° (SE) 2,095 ? -29.2°
Sets 04:11:32 0° 122° (ESE) 2,925 ? -28.8°
